Weather History for Upington, South Africa

Change the Weather History Date:

Friday, December 7, 2012

  Actual Average Record
Temperature  
Mean Temperature 80 °F -  
Max Temperature 97 °F 92 °F 105 °F (2008)
Min Temperature 62 °F 64 °F 59 °F (2004)
Cooling Degree Days 14    
Growing Degree Days 30 (Base 50)    
Moisture  
Dew Point 46 °F    
Average Humidity 38    
Maximum Humidity 82    
Minimum Humidity 5    
Precipitation  
Precipitation 0.00 in 0.02 in - ()
Sea Level Pressure  
Sea Level Pressure 29.99 in    
Wind  
Wind Speed 8 mph ()    
Max Wind Speed 18 mph    
Max Gust Speed 29 mph    
Visibility 6.2 miles    
Events      
Averages and records for this station are not official NWS values.
T = Trace of Precipitation, MM = Missing Value Source: Averaged Metar Reports

Daily Weather History Graph

Daily Weather History Graph

Search for Another Location

Airport:

Trip Planner

Search our weather history database for the weather conditions in past years. The results will help you decide how hot, cold, wet, or windy it might be!

Date:

Astronomy

Dec. 07, 2012 Rise Set
Actual Time 5:30 AM SAST 7:23 PM SAST
Civil Twilight 5:03 AM SAST 7:49 PM SAST
Nautical Twilight 4:31 AM SAST 8:22 PM SAST
Astronomical Twilight 3:57 AM SAST 8:56 PM SAST
Moon 12:42 AM SAST (12/7) 1:11 PM SAST (12/7)
Length of Visible Light 14h 46m
Length of Day
13h 53m
Last Quarter, 42% of the Moon is Illuminated
Dec 7
Last Quarter
Dec 13
New
Dec 20
First Quarter
Dec 28
Full
Jan 5
Last Quarter

Hourly Weather History & Observations

Time (SAST) Temp. Heat Index Dew Point Humidity Pressure Visibility Wind Dir Wind Speed Gust Speed Precip Events Conditions
12:00 AM 66.2 °F - 53.6 °F 64% 30.01 in - NNW 4.6 mph - N/A   Unknown
1:00 AM 64.4 °F - 55.4 °F 73% 30.01 in - ENE 3.5 mph - N/A   Clear
2:00 AM 64 °F - 57 °F 71%  in 25 mi North 3.5 mph - -  
2:00 AM 62.6 °F - 55.4 °F 77% 30.01 in - North 3.5 mph - N/A   Clear
3:00 AM 64.4 °F - 57.2 °F 77% 30.01 in - North 5.8 mph - N/A   Clear
4:00 AM 64.4 °F - 55.4 °F 73% 30.01 in - North 5.8 mph - N/A   Clear
5:00 AM 64 °F - 58 °F 74%  in 25 mi North 6.9 mph - -  
5:00 AM 62.6 °F - 57.2 °F 82% 30.01 in - North 5.8 mph - N/A   Clear
6:00 AM 64.4 °F - 57.2 °F 77% 30.01 in - North 6.9 mph - N/A   Clear
6:45 AM 69.8 °F - 59.0 °F 68% 30.04 in - NNW 9.2 mph - N/A   Clear
7:00 AM 69.8 °F - 59.0 °F 68% 30.04 in - NNW 11.5 mph - N/A   Clear
7:28 AM 73.4 °F - 59.0 °F 61% 30.04 in - NNW 15.0 mph - N/A   Clear
8:00 AM 76 °F - 57 °F 41%  in 25 mi NNW 17.3 mph - -  
8:00 AM 75.2 °F - 55.4 °F 50% 30.04 in - NNW 16.1 mph - N/A   Clear
8:38 AM 78.8 °F - 55.4 °F 44% 30.04 in - NW 13.8 mph - N/A   Clear
9:00 AM 80.6 °F 80.3 °F 53.6 °F 39% 30.04 in - NW 11.5 mph - N/A   Clear
10:00 AM 82.4 °F 81.4 °F 53.6 °F 37% 30.04 in - NW 18.4 mph - N/A   Clear
10:48 AM 86.0 °F - 51.8 °F 31% 30.01 in 6.2 mi NNW 13.8 mph - N/A   Partly Cloudy
11:00 AM 85 °F - 53 °F 23%  in 25 mi NW 15.0 mph - -   Scattered Clouds
11:00 AM 84.2 °F - 51.8 °F 33% 30.01 in 6.2 mi NW 15.0 mph 28.8 mph N/A   Partly Cloudy
11:17 AM 87.8 °F 85.7 °F 53.6 °F 31% 30.01 in 6.2 mi NNW 13.8 mph - N/A   Partly Cloudy
12:00 PM 87.8 °F - 51.8 °F 29% 29.98 in 6.2 mi NW 13.8 mph - N/A   Partly Cloudy
12:22 PM 93.2 °F - 51.8 °F 24% 29.98 in 6.2 mi NW 12.7 mph - N/A   Partly Cloudy
1:00 PM 93.2 °F - 51.8 °F 24% 29.98 in 6.2 mi NW 12.7 mph 25.3 mph N/A   Partly Cloudy
2:00 PM 95 °F - 41 °F 8%  in 25 mi WNW 15.0 mph - -   Scattered Clouds
2:00 PM 95.0 °F - 41.0 °F 15% 29.95 in 6.2 mi WNW 13.8 mph 27.6 mph N/A   Scattered Clouds
3:00 PM 96.8 °F - 41.0 °F 15% 29.92 in 6.2 mi WNW 13.8 mph - N/A   Scattered Clouds
4:00 PM 95.0 °F - 35.6 °F 12% 29.92 in 6.2 mi West 12.7 mph - N/A   Partly Cloudy
5:00 PM 97 °F - 35 °F 5%  in 25 mi West 12.7 mph - -   Scattered Clouds
5:00 PM 96.8 °F - 33.8 °F 11% 29.92 in 6.2 mi West 12.7 mph - N/A   Partly Cloudy
6:00 PM 93.2 °F - 32.0 °F 11% 29.92 in 6.2 mi SSW 12.7 mph - N/A   Partly Cloudy
7:00 PM 87.8 °F - 24.8 °F 10% 29.92 in 6.2 mi SSW 12.7 mph - N/A   Partly Cloudy
8:00 PM 85 °F - 27 °F 6%  in 25 mi SSW 10.4 mph - -   Scattered Clouds
8:00 PM 84.2 °F - 28.4 °F 13% 29.95 in 6.2 mi SSW 9.2 mph - N/A   Partly Cloudy
9:00 PM 78.8 °F - 26.6 °F 15% 29.95 in - SSW 9.2 mph - N/A   Unknown
10:00 PM 73.4 °F - 26.6 °F 18% 29.98 in - SW 6.9 mph - N/A   Unknown
11:00 PM 75 °F - 25 °F 8%  in - Calm Calm - -  
11:00 PM 73.4 °F - 24.8 °F 16% 29.98 in - SSW 1.2 mph - N/A   Unknown